STARLINK-11477, 62471

Orbit data source: Space-Track

STARLINK-11477, 62471 is a payload satellite owned by SpaceX/Seattle (US) in LEO that was launched on Tue, 31 Dec 2024 UTC via an FALCON 9 launch vehicle from the Air Force Eastern Test Range (AFETR). Payloads include a variety of satellites, spacecraft, and rockets equipped with specific instruments for various scientific and technological missions. These include communications satellites like Starlink; space stations such as the ISS; scientific satellites like the Hubble; Earth observation satellites from companies like Planet Labs, Umbra, and HawkEye 360; GPS; miniature CubeSats for education and research; and military/defense satellites.

Loading next visibility...
STARLINK-11477 details
Identifier
62471, 2024-254K
Orbit
LEO
Last TLE update23 hours ago
Origin
Flag of USSpaceX/Seattle (US)
ManufacturerSpaceX/Seattle
MissionOperational Commercial Communications
Bus & MotorSTARLINK V2M, Unknown motor
Mass730 kg wet, ~700 kg dry
Launch date (UTC)
2024-12-31 (1 month ago)
Launch vehicle
FALCON 9
Launch site
Air Force Eastern Test Range (AFETR)
Object type
Payload
Rocket body
Debris
Shape & HBRBox + 2 Pan, 29 m
Radar Cross Section36.964 m², Large (>1 m²)

Expand to show TLE details & history

TLE from 23 hours ago
0 STARLINK-11477
1 62471U 24254K   25035.24573360  .00005191  00000-0  32696-4 0  9998
2 62471  43.0033 105.7994 0001955 272.0900  87.9746 15.77846262  6713
Epoch: 2025-02-04T05:53Z
Definitive object data (Epoch: 2025-02-04T05:53:51.383Z)
Latitude-0.00002°
Longitude-117.31851°
Altitude336.269 km
Speed7.709 km/s
True Right ascension07h 03m 11s
True Declination0° 00' 00"
Sunlit
Object was in full shadow at TLE epoch
Visualization TLE readout
Latitude8.12792°
Longitude-114.35814°
Altitude335.667 km
Speed7.71 km/s
Apparent Right ascension08h 31m 22s
Apparent Declination-58° 50' 22"
Sunlit
Object is in full shadow
Visualization observer readout
Local Sidereal Time06:46:02
Azimuth166.47° S
Elevation-11.152°
Doppler factor1
Orbital elements
Apogee altitude339.844 km
Perigee altitude337.218 km
Semi-major axis6,716.668 km
Eccentricity0.0001955
Inclination43.0033°
RAAN105.7994°
Arg. of periapsis272.09°
True anomaly87.99699°
Mean anomaly87.9746°
Eccentric anomaly87.98579°
Mean motion3.94287 °/min
BSTAR0.000032696
Orbital period91.3 mins
Loading maneuver chart data...
Loading historical data...
Loading historical data...
Loading historical data...
Loading historical data...
Loading historical data...
Loading historical data...
Loading historical data...

STARLINK-11477 Visibility forecast

Observer location: undefined°, undefined

Span
Click to sort rows by Start time (UTC) header in descending order
Start Az.
Max El. time (UTC)
Max El. Az.
Max El.
End time (UTC)
End Az.
4 mins2025-02-05 07:57:08.393Z215.902° SW2025-02-05 07:59:08.393Z140.223° SSE31.404°2025-02-05 08:01:08.393Z86.139° E
4 mins2025-02-05 09:33:08.393Z281.962° WNW2025-02-05 09:34:08.393Z314.671° NW35.829°2025-02-05 09:37:08.393Z67.502° E
4 mins2025-02-05 11:09:08.393Z305.676° NW2025-02-05 11:10:08.393Z344.019° N34.585°2025-02-05 11:13:08.393Z82.83° E
|